Current Weather Conditions: station 62114

sailwx.info

See reports from other nearby stations

no recent reports received from weather station ID 62114

Tides Pressure Air temp Water temp Dewpoint Dewpoint depression Visibility Wind speed Wind direction Waves Ship positions
date/time (UTC)wind fromknots sea level pressurealtimeterstation pressurevisibilityair tempwater tempwave heightnotes
2015-Aug-05 03:00 190 22 13.8
2015-Aug-05 02:00 190 20 13.9
2015-Aug-05 01:00 200 20 14.0
2015-Aug-05 00:00 190 20 14.2
2015-Aug-04 23:00 190 25 14.4
2015-Aug-04 22:00 190 24 14.4
2015-Aug-04 21:00 190 23 14.3
2015-Aug-04 05:00 190 16 14.5
2015-Aug-04 02:00 170 19 14.4
2015-Aug-04 01:00 140 14 14.4
2015-Aug-03 23:00 180 18 14.2
2015-Aug-03 22:00 180 18 14.1
2015-Aug-03 21:00 170 16 13.8
2015-Aug-03 20:00 150 18 13.7
2015-Aug-03 19:00 150 19 13.8
2015-Aug-03 18:00 140 20 13.8
2015-Aug-03 17:00 130 25 14.0
2015-Aug-03 16:00 130 23 14.3
2015-Aug-03 15:00 130 25 14.5
2015-Aug-03 14:00 130 29 14.6
2015-Aug-03 13:00 120 27 14.6
2015-Aug-03 12:00 120 30 14.4
2015-Aug-03 11:00 110 29 14.1
2015-Aug-03 10:00 110 29 13.9
2015-Aug-03 09:00 110 27 13.6
2015-Aug-03 08:00 110 26 13.6
2015-Aug-03 07:00 110 25 13.5
2015-Aug-03 06:00 110 23 13.4
2015-Aug-03 05:00 110 23 13.4
2015-Aug-03 04:00 110 23 13.3